Voltar ao catálogo

STARLINK-32410

AtivoComunicaçõesVLEO
NORAD 61887·PAYLOAD·🇺🇸 United States

Lançado Nov 9, 2024 de Vandenberg Space Force Base

Loading…

Próximas Passagens (próximas 24 horas)

TLE

AtualizadoSource: CelesTrak SupGP

Época: Sep 14, 2026, 22:37 UTC

1 61887C 24204P   26257.94284722  .00014612  00000+0  43174-3 0  2574
2 61887  53.1581 323.7133 0001126  86.1672 279.7007 15.34380775    13

Acompanhe STARLINK-32410 em tempo real com AllMySat

Download on the App Store